Terminal Aerodrome Forecast
Issued by NWS

Home | Current Version | Previous Version | Text Only | Print | Product List | Glossary On
Versions: 1 2 3 4 5 6 7 8 9 10 11 12 13 14 15 16 17 18
450
FTUS44 KLIX 191403 AAA
TAFGPT
TAF AMD
KGPT 191403Z 1914/2012 00000KT 1/2SM FG OVC002
     FM191500 10005KT P6SM SCT060
     FM200600 12006KT 3SM BR SCT015
      TEMPO 2008/2012 1/2SM FG VV002=

USA.gov is the U.S. government's official web portal to all federal, state and local government web resources and services.